Flag for U.S.A. Weather past 2 weeks in Chicago, Illinois, U.S.A.

Now
37 °F

Overcast.


Feels Like: 29 °F
Forecast: 29 / 39 °F
Wind: 13 mph from South

Location: Chicago Midway Airport

Current Time: Jan 29, 2015 at 1:17:44 AM

Latest Report: Jan 29, 2015 at 12:53 AM


Visibility: 10 mi

Pressure: 29.81 "Hg

Humidity: 65%

Dew point: 26 °F

Location of ChicagoLocation

Historic Weather in Chicago — Graph

°F

Chicago temperature yesterday

Maximum temperature yesterday: 36 °F (at 10:53 PM)
Minimum temperature yesterday: 24 °F (at 4:53 AM)
Average temperature yesterday: 31 °F

Past Weeks' High & Low Weather Summary

 TemperatureHumidityPressure
High45 °F (Jan 24, 12:53 PM)93% (Jan 19, 7:53 AM)30.52 "Hg (Jan 19, 7:53 AM)
Low6 °F (Jan 14, 6:53 AM)49% (Jan 28, 11:53 AM)29.63 "Hg (Jan 17, 2:53 PM)
Average31 °F76%30.05 "Hg
* Reported Jan 13 11:53 PM — Jan 28 11:53 PM, Chicago, Weather by CustomWeather, © 2014

Note: Actual official high and low records may vary slightly from our data, if they occured in-between our weather recording intervals... More about our weather records

Advertising

Chicago weather history for previous 24 hours

 ConditionsComfort  
Time TempWeatherWind HumidityBarometerVisibility
11:53 PM
Jan 28
36 °FMostly cloudy.15 mph64%29.85 "Hg10 mi
10:53 PM36 °FLight rain. Mostly cloudy.15 mph57%29.90 "Hg10 mi
9:53 PM35 °FMostly cloudy.15 mph56%29.93 "Hg10 mi
8:53 PM35 °FMostly cloudy.16 mph54%29.96 "Hg10 mi
7:53 PM35 °FMostly cloudy.15 mph56%29.97 "Hg10 mi
6:53 PM34 °FMostly cloudy.14 mph59%30.01 "Hg10 mi
5:53 PM34 °FMostly cloudy.14 mph61%30.05 "Hg10 mi
4:53 PM34 °FMore clouds than sun.15 mph61%30.08 "Hg10 mi
3:53 PM35 °FMostly cloudy.14 mph59%30.12 "Hg10 mi
2:53 PM35 °FMostly cloudy.15 mph54%30.14 "Hg10 mi
1:53 PM35 °FMostly cloudy.14 mph52%30.17 "Hg10 mi
12:53 PM35 °FPartly sunny.14 mph52%30.20 "Hg10 mi
11:53 AM33 °FPartly sunny.16 mph49%30.24 "Hg10 mi
10:53 AM31 °FPartly sunny.13 mph54%30.28 "Hg10 mi
9:53 AM29 °FPartly sunny.8 mph58%30.31 "Hg10 mi
8:53 AM26 °FPartly sunny.9 mph66%30.32 "Hg10 mi
7:53 AM24 °FPartly sunny.8 mph71%30.34 "Hg10 mi
6:53 AM24 °FPassing clouds.7 mph71%30.33 "Hg10 mi
5:53 AM24 °FClear.5 mph75%30.33 "Hg10 mi
4:53 AM24 °FPassing clouds.7 mph77%30.31 "Hg10 mi
3:53 AM25 °FPassing clouds.3 mph78%30.33 "Hg10 mi
2:53 AM26 °FPassing clouds.3 mph77%30.32 "Hg10 mi
1:53 AM25 °FPartly cloudy.No wind81%30.31 "Hg10 mi
Weather by CustomWeather, © 2014

See weather overviewHow to use our weather pages